EW2318 Weather Reports


time (UTC)temp
F
wind
direction
speed
knots
gust
knots
rain 1hr
in
rain 24hr
in
rain mn
in
humidity
%
barometer
mb
20260905170120 62 274 3.5 13.0 0.00 0.07 0.07 59 1020.7
20260905165545 62 269 5.2 14.8 0.00 0.07 0.07 58 1020.6
20260905165046 62 283 5.2 14.8 0.00 0.07 0.07 58 1020.4
20260905164605 62 263 7.0 13.9 0.00 0.07 0.07 58 1020.4
20260905164045 62 259 4.3 15.6 0.00 0.07 0.07 58 1020.4
20260905163544 62 265 7.0 15.6 0.00 0.07 0.07 57 1020.4
20260905163105 62 228 6.1 15.6 0.00 0.07 0.07 58 1020.4
20260905162546 62 261 7.8 14.8 0.00 0.07 0.07 58 1020.4
20260905162045 62 11 6.1 13.0 0.00 0.07 0.07 59 1020.4
20260905161600 62 249 4.3 11.3 0.00 0.07 0.07 59 1020.4
20260905161045 62 265 5.2 16.5 0.00 0.07 0.07 58 1020.2
20260905160544 63 267 6.1 16.5 0.00 0.07 0.07 58 1020.2
20260905160105 63 277 6.1 15.6 0.00 0.07 0.07 58 1020.2
20260905155548 63 278 7.8 15.6 0.00 0.07 0.07 57 1020.2
20260905155043 63 243 5.2 14.8 0.00 0.07 0.07 58 1020.0
20260905154609 63 297 6.1 14.8 0.00 0.07 0.07 58 1019.9
20260905154046 64 257 7.8 20.0 0.00 0.07 0.07 57 1019.8
20260905153545 65 288 7.0 20.0 0.00 0.07 0.07 57 1019.8
20260905153105 64 238 7.8 17.4 0.00 0.07 0.07 57 1019.8
20260905152546 64 260 7.0 17.4 0.00 0.07 0.07 59 1019.8
20260905152045 63 261 8.7 17.4 0.00 0.07 0.07 59 1019.8
20260905151606 63 300 7.8 13.9 0.00 0.07 0.07 60 1019.9
20260905151043 63 279 6.1 13.9 0.00 0.07 0.07 61 1019.8
20260905150544 62 277 6.1 11.3 0.00 0.07 0.07 61 1020.0
20260905150104 63 297 6.1 14.8 0.00 0.07 0.07 60 1019.9
20260905145544 63 261 3.5 14.8 0.00 0.07 0.07 60 1019.8
20260905145044 64 257 3.5 10.4 0.00 0.07 0.07 59 1019.7
20260905144602 64 265 4.3 13.0 0.00 0.07 0.07 58 1019.8
20260905144047 64 292 3.5 13.0 0.00 0.07 0.07 59 1019.7
20260905143545 63 262 4.3 12.2 0.00 0.07 0.07 58 1019.7
20260905143107 63 252 4.3 13.9 0.00 0.07 0.07 58 1019.7
20260905142547 63 266 7.0 13.9 0.00 0.07 0.07 57 1019.7
20260905142046 64 334 7.8 13.0 0.00 0.07 0.07 56 1019.8
20260905141630 64 241 3.5 13.0 0.00 0.07 0.07 56 1019.8
20260905141049 64 302 5.2 13.0 0.00 0.07 0.07 56 1019.8
20260905140544 64 257 5.2 12.2 0.00 0.07 0.07 56 1020.0
20260905140101 64 264 7.0 12.2 0.00 0.07 0.07 56 1019.9
20260905135545 64 261 4.3 11.3 0.00 0.07 0.07 55 1020.1
20260905135046 64 288 5.2 13.0 0.00 0.07 0.07 55 1020.1
20260905134603 65 270 4.3 15.6 0.00 0.07 0.07 55 1020.0
20260905134046 65 294 7.8 15.6 0.00 0.07 0.07 55 1020.1
20260905133545 65 259 5.2 16.5 0.00 0.07 0.07 54 1020.0
20260905133059 65 252 9.6 18.2 0.00 0.07 0.07 55 1020.1
20260905132543 65 265 9.6 18.2 0.00 0.07 0.07 55 1020.0
20260905132045 65 266 7.8 16.5 0.00 0.07 0.07 57 1020.0
20260905131629 65 254 10.4 16.5 0.00 0.07 0.07 57 1020.0
20260905131048 64 261 7.0 16.5 0.00 0.07 0.07 58 1019.9
20260905130545 64 265 8.7 16.5 0.00 0.07 0.07 59 1020.0
20260905130118 65 256 7.0 16.5 0.00 0.07 0.07 58 1020.1
20260905125545 65 264 7.8 16.5 0.00 0.07 0.07 57 1019.9
20260905125046 65 240 11.3 18.2 0.00 0.07 0.07 55 1020.0
20260905124606 66 205 9.6 18.2 0.00 0.07 0.07 55 1020.0
20260905124044 65 304 7.0 16.5 0.00 0.07 0.07 58 1019.9
20260905123546 65 290 7.0 15.6 0.00 0.07 0.07 58 1020.0
20260905123111 66 277 8.7 16.5 0.00 0.07 0.07 57 1020.1
20260905122546 65 264 7.0 16.5 0.00 0.07 0.07 57 1020.1
20260905122047 65 265 9.6 14.8 0.00 0.07 0.07 59 1020.1
20260905121603 64 283 6.1 14.8 0.00 0.07 0.07 63 1020.1
20260905121044 64 248 7.0 18.2 0.00 0.07 0.07 65 1020.0
20260905120547 63 263 8.7 18.2 0.00 0.07 0.07 65 1020.0
20260905115545 63 265 7.8 13.9 0.00 0.07 0.07 63 1020.0
20260905115046 64 278 6.1 16.5 0.00 0.07 0.07 64 1020.0
20260905114606 64 251 6.1 17.4 0.00 0.07 0.07 64 1020.0
20260905114044 64 259 9.6 17.4 0.00 0.07 0.07 61 1020.0
20260905113548 65 282 10.4 20.0 0.00 0.07 0.07 62 1020.0
20260905113113 64 245 9.6 20.0 0.00 0.07 0.07 64 1020.0
20260905112545 64 291 10.4 17.4 0.00 0.07 0.07 63 1020.0
20260905112046 64 254 9.6 16.5 0.00 0.07 0.07 64 1020.0
20260905111604 63 277 7.8 16.5 0.00 0.07 0.07 63 1020.0
20260905111044 63 290 9.6 16.5 0.00 0.07 0.07 63 1020.0
20260905110544 63 257 9.6 15.6 0.00 0.07 0.07 65 1020.1
20260905110104 63 246 7.0 17.4 0.00 0.07 0.07 67 1020.0
20260905105544 63 260 7.0 17.4 0.00 0.07 0.07 68 1020.0
20260905105044 63 289 10.4 18.2 0.00 0.07 0.07 67 1019.7
20260905104600 62 273 10.4 18.2 0.00 0.07 0.07 68 1019.8
20260905104047 62 236 8.7 18.2 0.00 0.07 0.07 67 1019.8
20260905103544 63 292 8.7 18.2 0.00 0.07 0.07 65 1019.8
20260905103058 63 272 7.8 15.6 0.00 0.07 0.07 66 1019.7
20260905102544 62 259 8.7 17.4 0.00 0.07 0.07 67 1019.7
20260905102044 62 232 7.8 17.4 0.00 0.07 0.07 68 1019.8
20260905101632 62 253 9.6 16.5 0.00 0.07 0.07 69 1019.8
20260905101047 62 254 7.0 15.6 0.00 0.07 0.07 70 1019.8
20260905100543 62 270 7.0 15.6 0.00 0.07 0.07 71 1019.9
20260905100107 61 290 7.8 15.6 0.00 0.07 0.07 71 1020.0
20260905095544 60 272 7.8 14.8 0.00 0.07 0.07 72 1020.0
20260905095045 60 288 7.0 14.8 0.00 0.07 0.07 71 1020.0
20260905094604 60 252 8.7 15.6 0.00 0.07 0.07 71 1020.1
20260905094047 60 244 8.7 15.6 0.00 0.07 0.07 72 1020.2
20260905093545 61 244 7.0 13.0 0.00 0.07 0.07 73 1020.2
20260905093104 61 261 7.0 14.8 0.00 0.07 0.07 73 1020.1
20260905092545 61 277 7.0 15.6 0.00 0.07 0.07 75 1020.1
20260905092044 61 265 8.7 15.6 0.00 0.07 0.07 74 1020.1
20260905091626 60 261 6.1 15.6 0.00 0.07 0.07 77 1020.1
20260905091048 60 290 7.8 15.6 0.00 0.07 0.07 77 1020.1
20260905090546 60 212 7.8 17.4 0.00 0.07 0.07 77 1020.0
20260905085545 59 285 6.1 13.9 0.00 0.07 0.07 78 1019.9
20260905085046 59 254 7.8 13.9 0.00 0.07 0.07 79 1020.0
20260905084617 59 283 6.1 13.9 0.00 0.07 0.07 80 1019.8
20260905084045 59 230 7.8 13.9 0.00 0.07 0.07 81 1020.0
20260905083546 58 242 6.1 13.9 0.00 0.07 0.07 82 1019.9
20260905083057 58 251 5.2 13.9 0.00 0.07 0.07 84 1019.8
20260905082546 57 316 7.0 13.9 0.00 0.07 0.07 83 1019.7
20260905082046 57 264 7.8 16.5 0.00 0.07 0.07 84 1019.7
20260905081600 57 251 7.0 16.5 0.00 0.07 0.07 86 1019.6
20260905081044 56 248 7.0 17.4 0.00 0.07 0.07 88 1019.5
20260905080545 56 320 6.1 17.4 0.00 0.07 0.07 88 1019.5
20260905080109 55 273 7.0 17.4 0.00 0.07 0.07 88 1019.4
20260905075547 55 273 4.3 13.0 0.00 0.07 0.07 88 1019.2
20260905075046 55 295 4.3 12.2 0.00 0.07 0.07 89 1019.3
20260905074601 55 304 6.1 12.2 0.00 0.07 0.07 90 1019.2
20260905074046 54 259 6.1 12.2 0.00 0.07 0.07 90 1019.3
20260905073549 54 277 3.5 10.4 0.00 0.07 0.07 90 1019.5
20260905073103 54 242 5.2 10.4 0.00 0.07 0.07 90 1019.4
20260905072549 54 250 5.2 10.4 0.00 0.07 0.07 90 1019.2
20260905072049 54 249 4.3 11.3 0.00 0.07 0.07 90 1019.3
20260905071605 54 248 5.2 11.3 0.00 0.07 0.07 90 1019.2
20260905071043 54 258 5.2 12.2 0.00 0.07 0.07 90 1019.3
20260905070545 54 279 5.2 12.2 0.00 0.07 0.07 90 1019.3
20260905070116 54 263 7.8 13.0 0.00 0.07 0.07 90 1019.1
20260905065547 54 288 7.0 13.0 0.00 0.07 0.07 90 1019.1
20260905065046 54 242 6.1 17.4 0.00 0.07 0.07 91 1018.9
20260905064557 54 270 7.0 17.4 0.00 0.07 0.07 91 1018.7
20260905064049 54 248 9.6 16.5 0.00 0.07 0.07 91 1018.6
20260905063545 54 283 6.1 13.9 0.00 0.07 0.07 91 1018.8
20260905063103 54 258 7.0 14.8 0.00 0.07 0.07 91 1018.9
20260905062545 54 304 7.8 15.6 0.00 0.07 0.07 92 1018.7
20260905062137 54 252 9.6 15.6 0.00 0.07 0.07 92 1018.9
20260905061617 54 267 8.7 13.9 0.01 0.07 0.07 92 1018.8
20260905061049 54 270 7.8 13.9 0.01 0.06 0.06 92 1018.7
20260905060545 54 252 4.3 9.6 0.03 0.06 0.06 92 1018.6
20260905060104 54 284 3.5 7.8 0.03 0.06 0.06 92 1018.5
20260905055544 54 279 4.3 7.0 0.04 0.06 0.06 92 1018.5
20260905055043 54 265 2.6 7.0 0.04 0.06 0.06 92 1018.2
20260905054604 54 265 2.6 6.1 0.05 0.06 0.06 91 1017.9
20260905054045 54 274 1.7 6.1 0.05 0.06 0.06 91 1017.7
20260905053543 54 296 1.7 7.0 0.05 0.06 0.06 91 1017.8
20260905053112 55 275 1.7 7.0 0.05 0.06 0.06 90 1017.9
20260905052542 55 260 3.5 8.7 0.06 0.06 0.06 90 1017.9
20260905052047 55 263 2.6 8.7 0.06 0.06 0.06 90 1018.1
20260905051601 55 267 4.3 8.7 0.05 0.05 0.05 89 1018.1
20260905051045 55 271 3.5 9.6 0.04 0.04 0.04 88 1018.0
20260905050550 55 295 5.2 9.6 0.03 0.03 0.03 87 1018.2
20260905050105 56 269 3.5 11.3 0.02 0.02 0.02 86 1018.3
20260905045543 56 270 4.3 11.3 0.01 0.01 0.01 86 1018.1
20260905045046 56 255 4.3 9.6 0.01 0.01 0.01 85 1018.3
20260905044602 56 254 4.3 9.6 0.00 0.00 0.00 84 1018.1
20260905044046 57 251 5.2 13.0 0.00 0.00 0.00 82 1017.7
20260905043543 57 276 6.1 13.0 0.00 0.00 0.00 81 1017.6
20260905043106 58 254 5.2 11.3 0.00 0.00 0.00 80 1017.5
20260905042549 58 258 4.3 10.4 0.00 0.00 0.00 79 1017.9
20260905042044 58 266 6.1 11.3 0.00 0.00 0.00 78 1018.3
20260905041604 58 300 5.2 11.3 0.00 0.00 0.00 78 1018.0
20260905041045 58 284 4.3 11.3 0.00 0.00 0.00 78 1017.9
20260905040543 59 261 5.2 9.6 0.00 0.00 0.00 77 1017.6
20260905040105 59 236 3.5 10.4 0.00 0.00 0.00 78 1017.5
20260905035542 59 257 5.2 10.4 0.00 0.00 0.00 78 1017.3
20260905035046 59 244 5.2 10.4 0.00 0.00 0.00 77 1017.2
20260905034605 59 267 5.2 9.6 0.00 0.00 0.00 78 1017.1
20260905034044 59 251 2.6 7.8 0.00 0.00 0.00 78 1017.2
20260905033543 60 276 2.6 8.7 0.00 0.00 0.00 77 1017.1
20260905033105 60 266 3.5 8.7 0.00 0.00 0.00 78 1017.1
20260905032543 60 269 2.6 9.6 0.00 0.00 0.00 78 1017.1
20260905032046 60 263 3.5 12.2 0.00 0.00 0.00 78 1017.1
20260905031601 60 246 5.2 12.2 0.00 0.00 0.00 77 1017.1
20260905031043 60 273 5.2 14.8 0.00 0.00 0.00 77 1017.2
20260905030543 60 257 6.1 14.8 0.00 0.00 0.00 76 1016.9
20260905030107 60 251 6.1 14.8 0.00 0.00 0.00 76 1016.9
20260905025545 61 265 4.3 9.6 0.00 0.00 0.00 76 1017.1
20260905025043 61 265 4.3 9.6 0.00 0.00 0.00 75 1017.0
20260905024640 61 265 3.5 11.3 0.00 0.00 0.00 75 1016.7
20260905024047 61 248 5.2 11.3 0.00 0.00 0.00 75 1016.6
20260905023546 61 261 5.2 10.4 0.00 0.00 0.00 74 1016.4
20260905023110 61 255 2.6 7.8 0.00 0.00 0.00 75 1016.3
20260905022545 61 246 2.6 9.6 0.00 0.00 0.00 75 1016.1
20260905022045 61 269 4.3 9.6 0.00 0.00 0.00 75 1016.3
20260905021605 61 231 3.5 7.8 0.00 0.00 0.00 75 1016.2
20260905021043 61 320 4.3 7.8 0.00 0.00 0.00 77 1016.3
20260905020547 61 232 0.9 6.1 0.00 0.00 0.00 79 1016.2
20260905015546 61 247 0.9 2.6 0.00 0.00 0.00 80 1016.6
20260905015042 61 273 0.0 4.3 0.00 0.00 0.00 80 1016.6
20260905014605 61 273 0.0 4.3 0.00 0.00 0.00 80 1016.5
20260905014043 61 352 0.9 7.0 0.00 0.00 0.00 81 1016.4
20260905013543 60 355 1.7 7.0 0.00 0.00 0.00 83 1016.3
20260905013117 60 284 1.7 5.2 0.00 0.00 0.00 84 1016.5
20260905012546 60 273 1.7 7.0 0.00 0.00 0.00 85 1016.5
20260905012043 60 296 1.7 7.0 0.00 0.00 0.00 84 1016.2
20260905011604 60 0 1.7 3.5 0.00 0.00 0.00 83 1016.2
20260905011048 60 269 1.7 3.5 0.00 0.00 0.00 82 1015.8
20260905010545 60 254 0.9 3.5 0.00 0.00 0.00 81 1015.8
20260905010106 61 0 0.0 3.5 0.00 0.00 0.00 81 1015.8
20260905005545 61 0 0.0 3.5 0.00 0.00 0.00 81 1015.7
20260905005043 61 80 0.0 2.6 0.00 0.00 0.00 80 1015.9
20260905004606 61 248 0.9 2.6 0.00 0.00 0.00 78 1016.2
20260905004043 61 226 0.0 2.6 0.00 0.00 0.00 78 1015.6
20260905003544 61 0 0.0 5.2 0.00 0.00 0.00 77 1015.5
20260905003103 61 84 0.0 5.2 0.00 0.00 0.00 77 1015.3
20260905002543 61 114 0.9 3.5 0.00 0.00 0.00 77 1015.1
20260905002045 61 0 0.0 6.1 0.00 0.00 0.00 77 1015.0
20260905001606 61 19 1.7 6.1 0.00 0.00 0.00 76 1015.0
20260905001046 62 0 2.6 7.0 0.00 0.00 0.00 76 1014.9
20260905000543 62 95 1.7 7.0 0.00 0.00 0.00 76 1014.8
20260905000110 62 360 0.9 5.2 0.00 0.00 0.00 76 1014.8
20260904235542 62 14 0.0 5.2 0.00 0.00 0.00 75 1014.7
20260904235043 63 71 0.0 7.0 0.00 0.00 0.00 75 1014.3
20260904234607 63 49 2.6 7.0 0.00 0.00 0.00 75 1014.5
20260904234045 63 92 1.7 6.1 0.00 0.00 0.00 75 1014.3
20260904233545 63 48 1.7 6.1 0.00 0.00 0.00 75 1014.3
20260904233103 63 58 1.7 6.1 0.00 0.00 0.00 75 1014.2
20260904232543 63 54 2.6 6.1 0.00 0.00 0.00 75 1014.3
20260904232043 63 92 1.7 4.3 0.00 0.00 0.00 75 1014.3
20260904231606 63 61 0.9 3.5 0.00 0.00 0.00 75 1014.2
20260904231048 63 0 0.9 3.5 0.00 0.00 0.00 76 1014.2
20260904230543 63 84 0.9 3.5 0.00 0.00 0.00 77 1014.2
20260904230104 63 113 0.9 2.6 0.00 0.00 0.00 77 1014.1
20260904225543 63 0 0.0 0.9 0.00 0.00 0.00 77 1014.1
20260904225042 63 0 0.0 1.7 0.00 0.00 0.00 77 1014.1
20260904224601 64 0 0.0 1.7 0.00 0.00 0.00 77 1014.2
20260904224043 64 0 0.0 1.7 0.00 0.00 0.00 76 1014.0
20260904223543 64 0 0.0 1.7 0.00 0.00 0.00 76 1014.0
20260904223112 64 240 0.0 1.7 0.00 0.00 0.00 76 1014.0
20260904222543 64 0 0.0 1.7 0.00 0.00 0.00 75 1013.9
20260904222042 64 0 0.0 2.6 0.00 0.00 0.00 75 1013.9
20260904221610 64 240 0.9 3.5 0.00 0.00 0.00 75 1013.8
20260904221043 64 240 0.9 3.5 0.00 0.00 0.00 75 1013.8
20260904220544 64 220 0.9 3.5 0.00 0.00 0.00 74 1013.7
20260904220105 64 255 1.7 2.6 0.00 0.00 0.00 74 1013.7
20260904215545 64 248 1.7 2.6 0.00 0.00 0.00 74 1013.6
20260904215044 64 261 1.7 2.6 0.00 0.00 0.00 73 1013.6
20260904214609 65 266 0.9 2.6 0.00 0.00 0.00 73 1013.6
20260904214043 65 271 0.9 2.6 0.00 0.00 0.00 72 1013.6
20260904213547 65 283 0.9 2.6 0.00 0.00 0.00 72 1013.5
20260904213104 66 283 1.7 2.6 0.00 0.00 0.00 72 1013.5
20260904212545 66 271 0.9 3.5 0.00 0.00 0.00 71 1013.4
20260904212044 66 271 0.9 3.5 0.00 0.00 0.00 71 1013.7
20260904211612 66 246 1.7 3.5 0.00 0.00 0.00 70 1013.7
20260904211043 66 245 1.7 3.5 0.00 0.00 0.00 70 1013.6
20260904210545 67 248 1.7 3.5 0.00 0.00 0.00 70 1013.6
20260904210059 67 286 1.7 5.2 0.00 0.00 0.00 69 1013.7
20260904205547 67 246 1.7 5.2 0.00 0.00 0.00 69 1013.7
20260904205046 67 287 1.7 5.2 0.00 0.00 0.00 69 1013.7
20260904204604 67 251 1.7 5.2 0.00 0.00 0.00 68 1013.8
20260904204048 67 259 2.6 5.2 0.00 0.00 0.00 68 1013.8
20260904203547 67 261 2.6 5.2 0.00 0.00 0.00 68 1013.7
20260904203106 67 251 2.6 5.2 0.00 0.00 0.00 68 1013.7
20260904202545 67 294 0.9 5.2 0.00 0.00 0.00 68 1013.6
20260904202045 67 266 1.7 5.2 0.00 0.00 0.00 68 1013.7
20260904201605 67 248 1.7 5.2 0.00 0.00 0.00 69 1013.7
20260904201046 67 279 1.7 4.3 0.00 0.00 0.00 69 1013.8
20260904200546 67 287 2.6 4.3 0.00 0.00 0.00 69 1013.8
20260904200111 67 244 0.9 3.5 0.00 0.00 0.00 69 1013.9
20260904195545 68 238 1.7 3.5 0.00 0.00 0.00 69 1013.9
20260904195047 68 285 1.7 3.5 0.00 0.00 0.00 68 1014.0
20260904194606 68 271 1.7 4.3 0.00 0.00 0.00 68 1014.1
20260904194047 68 237 1.7 4.3 0.00 0.00 0.00 67 1014.1
20260904193547 69 251 1.7 4.3 0.00 0.00 0.00 67 1014.0
20260904193105 69 250 1.7 3.5 0.00 0.00 0.00 66 1014.1
20260904192543 70 240 1.7 3.5 0.00 0.00 0.00 65 1014.1
20260904192050 70 259 0.9 3.5 0.00 0.00 0.00 64 1014.2
20260904191607 70 248 0.9 3.5 0.00 0.00 0.00 64 1014.1
20260904191048 71 299 1.7 4.3 0.00 0.00 0.00 63 1014.2
20260904190545 71 248 0.9 6.1 0.00 0.00 0.00 62 1014.3
20260904190106 72 271 2.6 6.1 0.00 0.00 0.00 62 1014.3
20260904185546 72 241 2.6 6.1 0.00 0.00 0.00 61 1014.3
20260904185046 72 250 3.5 6.1 0.00 0.00 0.00 61 1014.3
20260904184606 72 248 2.6 6.1 0.00 0.00 0.00 61 1014.3
20260904184047 72 271 3.5 8.7 0.00 0.00 0.00 61 1014.1
20260904183545 72 235 2.6 8.7 0.00 0.00 0.00 61 1014.3
20260904183105 72 254 5.2 8.7 0.00 0.00 0.00 61 1014.4
20260904182551 72 277 4.3 9.6 0.00 0.00 0.00 61 1014.4
20260904182046 72 248 3.5 9.6 0.00 0.00 0.00 62 1014.3
20260904181603 72 240 5.2 9.6 0.00 0.00 0.00 62 1014.2
20260904181047 71 250 3.5 7.0 0.00 0.00 0.00 63 1014.2
20260904180547 71 255 3.5 7.0 0.00 0.00 0.00 64 1014.3
20260904180112 71 267 3.5 7.8 0.00 0.00 0.00 64 1014.2
20260904175544 71 246 3.5 7.8 0.00 0.00 0.00 64 1014.2
20260904175043 71 263 3.5 7.0 0.00 0.00 0.00 63 1014.2
20260904174603 71 234 3.5 7.8 0.00 0.00 0.00 63 1014.1
20260904174042 71 263 3.5 7.8 0.00 0.00 0.00 63 1013.9
20260904173543 72 250 3.5 7.0 0.00 0.00 0.00 63 1013.8
20260904173102 72 259 3.5 7.0 0.00 0.00 0.00 62 1013.7
20260904172544 72 237 3.5 8.7 0.00 0.00 0.00 61 1013.7
20260904172043 73 281 3.5 8.7 0.00 0.00 0.00 61 1013.7
20260904171605 73 274 4.3 8.7 0.00 0.00 0.00 60 1013.7
20260904171043 73 288 3.5 9.6 0.00 0.00 0.00 60 1013.7
20260904170545 73 285 4.3 9.6 0.00 0.00 0.00 60 1013.8